Location: Unspecified
(0.0000°N, 0.0000°E)
Time: 16:20:20
(UTC+00:00)

Tiangong 1 - Pass Details

Date: 12 August 2017
Orbit: 313 x 338 km, 42.8° (Epoch: 18 August)

Event Time Altitude Azimuth Distance (km) Brightness Sun altitude
Exits shadow 05:17:51 15° 293° (WNW) 974 2.6 -11.4°
Maximum altitude 05:19:50 40° 225° (SW) 479 1.1 -10.9°
Drops below altitude 10° 05:22:27 10° 153° (SSE) 1,225 3.8 -10.3°
Sets 05:24:30 0° 145° (SE) 2,064 5.0 -9.8°
